• In Lithuania
  • List of Countries
  • For 7 days
  • Water Temperature
  • Satellite Maps
  • Weather Map
  • Weather Widgets
  • user-avatar
    Login

    Hourly Weather Solden

    Today, 21 February, Wednesday

    Time Temperature Precipitation Wind Pressure Humidity
    00:00 -17°C° 0 mm 2 mps 571 mmHg 86%
    01:00 -17°C° 0 mm 2 mps 571 mmHg 85%
    02:00 -17°C° 0 mm 2 mps 571 mmHg 84%
    03:00 -18°C° 0 mm 2 mps 570 mmHg 84%
    04:00 -18°C° 0 mm 2 mps 570 mmHg 83%
    05:00 -18°C° 0 mm 2 mps 570 mmHg 82%
    06:00 -19°C° 0 mm 2 mps 570 mmHg 82%
    07:00 -19°C° 0 mm 2 mps 570 mmHg 82%
    08:00 -17°C° 0 mm 2 mps 571 mmHg 79%
    09:00 -15°C° 0 mm 2 mps 572 mmHg 76%
    10:00 -13°C° 0 mm 2 mps 573 mmHg 73%
    11:00 -10°C° 0 mm 2 mps 574 mmHg 71%
    12:00 -9°C° 0 mm 2 mps 574 mmHg 69%
    13:00 -8°C° 0 mm 2 mps 574 mmHg 67%
    14:00 -8°C° 0 mm 2 mps 574 mmHg 69%
    15:00 -8°C° 0 mm 2 mps 574 mmHg 70%
    16:00 -8°C° 0 mm 2 mps 574 mmHg 72%
    17:00 -9°C° 0 mm 2 mps 573 mmHg 77%
    18:00 -12°C° 0 mm 2 mps 572 mmHg 81%
    19:00 -14°C° 0 mm 2 mps 572 mmHg 85%
    20:00 -14°C° 0 mm 2 mps 571 mmHg 85%
    21:00 -15°C° 0 mm 2 mps 571 mmHg 85%
    22:00 -16°C° 0 mm 2 mps 571 mmHg 84%
    23:00 -16°C° 0 mm 2 mps 571 mmHg 84%

    Tomorrow, 22 February, Thursday

    Time Temperature Precipitation Wind Pressure Humidity
    00:00 -17°C° 0 mm 2 mps 570 mmHg 83%
    01:00 -17°C° 0 mm 2 mps 570 mmHg 82%
    02:00 -17°C° 0 mm 2 mps 570 mmHg 81%
    03:00 -17°C° 0 mm 2 mps 569 mmHg 81%
    04:00 -17°C° 0 mm 2 mps 569 mmHg 80%
    05:00 -16°C° 0 mm 2 mps 569 mmHg 80%
    06:00 -16°C° 0 mm 2 mps 569 mmHg 80%
    07:00 -16°C° 0 mm 2 mps 569 mmHg 80%
    08:00 -14°C° 0.1 mm 2 mps 570 mmHg 78%
    09:00 -12°C° 0.1 mm 2 mps 571 mmHg 77%
    10:00 -10°C° 0.1 mm 2 mps 572 mmHg 75%
    11:00 -9°C° 0.1 mm 2 mps 572 mmHg 75%
    12:00 -8°C° 0.1 mm 2 mps 573 mmHg 74%
    13:00 -7°C° 0.1 mm 2 mps 573 mmHg 74%
    14:00 -6°C° 0.2 mm 1 mps 573 mmHg 74%
    15:00 -6°C° 0.2 mm 1 mps 573 mmHg 75%
    16:00 -6°C° 0.2 mm 1 mps 573 mmHg 76%
    17:00 -7°C° 0.1 mm 1 mps 572 mmHg 80%
    18:00 -8°C° 0.1 mm 1 mps 572 mmHg 83%
    19:00 -10°C° 0.1 mm 1 mps 571 mmHg 86%
    20:00 -10°C° 0.1 mm 1 mps 571 mmHg 86%
    21:00 -11°C° 0.1 mm 1 mps 571 mmHg 86%
    22:00 -12°C° 0.1 mm 1 mps 571 mmHg 85%
    23:00 -12°C° 0.1 mm 1 mps 571 mmHg 85%

    Day after tomorrow, 23 February, Friday

    Time Temperature Precipitation Wind Pressure Humidity
    00:00 -12°C° 0.1 mm 1 mps 571 mmHg 84%
    01:00 -12°C° 0.1 mm 1 mps 571 mmHg 83%
    02:00 -12°C° 0 mm 1 mps 570 mmHg 82%
    03:00 -12°C° 0 mm 1 mps 570 mmHg 81%
    04:00 -12°C° 0 mm 1 mps 570 mmHg 80%
    05:00 -12°C° 0 mm 1 mps 570 mmHg 80%
    06:00 -12°C° 0 mm 1 mps 570 mmHg 79%
    07:00 -12°C° 0 mm 1 mps 570 mmHg 79%
    08:00 -10°C° 0.2 mm 1 mps 571 mmHg 77%
    09:00 -9°C° 0.2 mm 1 mps 572 mmHg 76%
    10:00 -7°C° 0.2 mm 1 mps 573 mmHg 75%
    11:00 -6°C° 0.4 mm 1 mps 573 mmHg 77%
    12:00 -6°C° 0.4 mm 1 mps 574 mmHg 79%
    13:00 -4°C° 0.4 mm 1 mps 574 mmHg 81%
    14:00 -4°C° 0.2 mm 1 mps 574 mmHg 81%
    15:00 -4°C° 0.2 mm 1 mps 574 mmHg 81%
    16:00 -4°C° 0.2 mm 1 mps 574 mmHg 81%
    17:00 -6°C° 0.1 mm 1 mps 574 mmHg 83%
    18:00 -8°C° 0.1 mm 1 mps 573 mmHg 85%
    19:00 -9°C° 0.1 mm 1 mps 573 mmHg 86%
    20:00 -9°C° 0.1 mm 1 mps 573 mmHg 85%
    21:00 -9°C° 0.1 mm 1 mps 573 mmHg 83%
    22:00 -10°C° 0.1 mm 2 mps 574 mmHg 81%
    23:00 -9°C° 0.2 mm 2 mps 574 mmHg 81%

    24 February, Saturday

    Time Temperature Precipitation Wind Pressure Humidity
    00:00 -9°C° 0.2 mm 2 mps 574 mmHg 80%
    01:00 -9°C° 0.2 mm 2 mps 574 mmHg 80%
    02:00 -9°C° 0.1 mm 2 mps 574 mmHg 80%
    03:00 -9°C° 0.1 mm 2 mps 574 mmHg 79%
    04:00 -9°C° 0.1 mm 2 mps 574 mmHg 79%
    05:00 -9°C° 0 mm 2 mps 574 mmHg 80%
    06:00 -9°C° 0 mm 2 mps 574 mmHg 80%
    07:00 -9°C° 0 mm 2 mps 574 mmHg 80%
    08:00 -6°C° 0 mm 1 mps 575 mmHg 80%
    09:00 -3°C° 0 mm 1 mps 576 mmHg 79%
    10:00 -1°C° 0 mm 1 mps 577 mmHg 79%
    11:00 -1°C° 0 mm 1 mps 577 mmHg 81%
    12:00 0°C° 0 mm 1 mps 577 mmHg 82%
    13:00 0°C° 0 mm 1 mps 577 mmHg 84%
    14:00 0°C° 0 mm 1 mps 577 mmHg 85%
    15:00 0°C° 0 mm 1 mps 577 mmHg 86%
    16:00 -1°C° 0 mm 1 mps 577 mmHg 87%
    17:00 -2°C° 0.1 mm 1 mps 576 mmHg 89%
    18:00 -3°C° 0.1 mm 1 mps 576 mmHg 92%
    19:00 -4°C° 0.1 mm 1 mps 576 mmHg 94%
    20:00 -6°C° 0.2 mm 1 mps 576 mmHg 94%
    21:00 -6°C° 0.2 mm 1 mps 576 mmHg 95%
    22:00 -6°C° 0.2 mm 1 mps 576 mmHg 95%
    23:00 -7°C° 0.2 mm 1 mps 576 mmHg 95%

    25 February, Sunday

    Time Temperature Precipitation Wind Pressure Humidity
    00:00 -7°C° 0.2 mm 1 mps 575 mmHg 95%
    01:00 -8°C° 0.2 mm 1 mps 575 mmHg 95%
    02:00 -8°C° 0.2 mm 1 mps 575 mmHg 95%
    03:00 -8°C° 0.2 mm 1 mps 575 mmHg 94%
    04:00 -8°C° 0.2 mm 1 mps 574 mmHg 94%
    05:00 -9°C° 0.2 mm 1 mps 574 mmHg 93%
    06:00 -9°C° 0.2 mm 1 mps 574 mmHg 93%
    07:00 -10°C° 0.2 mm 1 mps 574 mmHg 92%
    08:00 -10°C° 0.2 mm 2 mps 575 mmHg 90%
    09:00 -10°C° 0.2 mm 2 mps 575 mmHg 87%
    10:00 -9°C° 0.2 mm 2 mps 576 mmHg 84%
    11:00 -9°C° 0.2 mm 2 mps 576 mmHg 83%
    12:00 -9°C° 0.2 mm 2 mps 576 mmHg 81%
    13:00 -10°C° 0.2 mm 3 mps 576 mmHg 80%
    14:00 -12°C° 0.2 mm 3 mps 575 mmHg 81%
    15:00 -13°C° 0.2 mm 3 mps 575 mmHg 81%
    16:00 -14°C° 0.2 mm 3 mps 575 mmHg 82%
    17:00 -16°C° 0.2 mm 3 mps 574 mmHg 83%
    18:00 -17°C° 0.2 mm 2 mps 574 mmHg 85%
    19:00 -19°C° 0.2 mm 2 mps 573 mmHg 87%
    20:00 -20°C° 0.1 mm 2 mps 573 mmHg 86%
    21:00 -21°C° 0.1 mm 2 mps 573 mmHg 84%
    22:00 -23°C° 0.1 mm 2 mps 572 mmHg 83%
    23:00 -24°C° 0 mm 2 mps 572 mmHg 81%

    26 February, Monday

    Time Temperature Precipitation Wind Pressure Humidity
    00:00 -25°C° 0 mm 2 mps 572 mmHg 79%
    01:00 -22°C° 0 mm 1 mps 571 mmHg 78%
    02:00 -26°C° 0 mm 2 mps 571 mmHg 75%
    03:00 -26°C° 0 mm 2 mps 571 mmHg 73%
    04:00 -27°C° 0 mm 2 mps 570 mmHg 70%
    05:00 -27°C° 0 mm 2 mps 570 mmHg 69%
    06:00 -27°C° 0 mm 2 mps 570 mmHg 68%
    07:00 -28°C° 0 mm 2 mps 570 mmHg 67%
    08:00 -25°C° 0 mm 2 mps 571 mmHg 63%
    09:00 -23°C° 0 mm 2 mps 572 mmHg 60%
    10:00 -20°C° 0 mm 2 mps 573 mmHg 57%
    11:00 -19°C° 0 mm 2 mps 573 mmHg 56%
    12:00 -18°C° 0 mm 2 mps 573 mmHg 56%
    13:00 -17°C° 0 mm 2 mps 574 mmHg 55%
    14:00 -17°C° 0 mm 2 mps 573 mmHg 58%
    15:00 -17°C° 0 mm 2 mps 573 mmHg 61%
    16:00 -18°C° 0 mm 2 mps 572 mmHg 64%
    17:00 -20°C° 0 mm 2 mps 572 mmHg 70%
    18:00 -21°C° 0 mm 2 mps 571 mmHg 75%
    19:00 -24°C° 0 mm 2 mps 570 mmHg 80%
    20:00 -25°C° 0 mm 2 mps 570 mmHg 81%
    21:00 -23°C° 0 mm 1 mps 569 mmHg 81%
    22:00 -24°C° 0 mm 1 mps 569 mmHg 81%
    23:00 -24°C° 0 mm 1 mps 569 mmHg 80%
    Show more